CAPE
0 0 0 0 0 0 0 0 0 0 0 0 0 0 0 0 0 0 0 0 0 0 0 0 0 0 0 0 0 0 0 0 0 0 0 0 0 0 0 0 0 0 0
0 0 0 0 0 0 0 0 0 0 0 0 0 0 0 0 0 0 0 0 0 0 0 0 0 0 0 0 0 0 0 0 0 0 0 0 0 0 0 0 0 0 0
0 0 0 0 0 0 0 0 0 0 0 0 0 0 0 0 0 0 0 0 0 0 0 0 0 0 0 0 0 0 0 0 0 0 0 0 0 0 0 0 0 0 0
0 0 0 0 0 0 0 0 0 0 0 0 0 0 0 0 0 0 0 0 0 0 0 0 0 0 0 0 0 0 0 0 0 0 0 0 0 0 0 0 0 0 0
0 0 0 0 0 0 0 0 0 0 0 0 0 0 0 0 0 0 0 0 0 0 0 0 0 0 0 0 0 0 0 0 0 0 0 0 0 0 0 0 0 0 0
0 0 0 0 0 0 0 0 0 0 0 0 0 0 0 0 0 0 0 0 0 0 0 0 0 0 0 0 0 0 0 0 0 0 0 0 0 0 0 0 0 0 0
0 0 0 0 0 0 0 0 0 0 0 0 0 0 0 0 0 0 0 0 0 0 0 0 0 0 0 0 0 0 0 0 0 0 0 0 0 0 0 0 0 0 0
0 0 0 0 0 0 0 0 0 0 0 0 0 0 0 0 0 0 0 0 0 0 0 0 0 0 0 0 0 0 0 0 0 0 0 0 0 0 0 0 0 0 0
0 0 0 0 0 0 0 0 0 0 0 0 0 0 0 0 0 0 0 0 0 0 0 0 0 0 0 0 0 0 0 0 0 0 0 0 0 0 0 0 0 0 0
0 0 0 0 0 0 0 0 0 0 0 0 0 0 0 0 0 0 0 0 0 0 0 0 0 0 0 0 0 0 0 0 0 0 0 0 0 0 0 0 0 0 0
0 0 0 0 0 0 0 0 0 0 0 0 0 0 0 0 0 0 0 0 0 0 0 0 0 0 0 0 0 0 0 0 0 0 0 0 0 0 0 0 0 0 0
0 0 0 0 0 0 0 0 0 0 0 0 0 0 0 0 0 0 0 0 0 0 0 0 0 0 0 0 0 0 0 0 0 0 0 0 0 0 0 0 0 0 0
0 0 0 0 0 0 0 0 0 0 0 0 0 0 0 0 0 0 0 0 0 0 0 0 0 0 0 0 0 0 0 0 0 0 0 0 0 0 0 0 0 0 0
0 0 0 0 0 0 0 0 0 0 0 0 0 0 0 0 0 0 0 0 0 0 0 0 0 0 0 0 0 0 0 0 0 0 0 0 0 0 0 0 0 0 0
0 0 0 0 0 0 0 0 0 0 0 0 0 0 0 0 0 0 0 0 0 0 0 0 0 0 0 0 0 0 0 0 0 0 0 0 0 0 0 0 0 0 0
0 0 0 0 0 0 0 0 0 0 0 0 0 0 0 0 0 0 0 0 0 0 0 0 0 0 0 0 0 0 0 0 0 0 0 0 0 0 0 0 0 0 0
0 0 0 0 0 0 0 0 0 0 0 0 0 0 0 0 0 0 0 0 0 0 0 0 0 0 0 0 0 0 0 0 0 0 0 0 0 0 0 0 0 0 1
0 0 0 0 0 0 0 0 0 0 0 0 0 0 0 0 0 0 0 0 0 0 0 0 0 0 0 0 0 0 0 0 0 0 0 0 0 0 0 0 0 0 0
0 0 0 0 0 0 0 0 0 0 0 0 0 0 0 0 0 0 0 0 0 0 0 0 0 0 0 0 0 0 0 0 0 0 0 0 0 0 0 0 0 0 0
0 0 0 0 0 0 0 0 0 0 0 0 0 0 0 0 0 0 0 0 0 0 0 0 0 0 0 0 0 0 0 0 0 0 0 0 0 0 0 0 0 0 0
0 0 0 0 0 0 0 0 0 0 0 0 0 0 0 0 0 0 0 0 0 0 0 0 0 0 0 0 0 0 0 0 0 0 0 0 0 1 0 0 0 0 0
0 0 0 0 0 0 0 0 0 0 0 0 0 0 0 0 0 0 0 0 0 0 0 0 0 0 0 0 0 0 0 0 0 0 0 0 0 0 0 0 0 3 11
0 0 0 0 0 0 0 0 0 0 0 0 0 0 0 0 0 0 0 0 0 0 0 0 0 0 0 0 0 0 0 0 0 0 0 0 0 0 0 0 4 9 0
0 0 0 0 0 0 0 0 0 0 0 0 0 0 0 0 0 0 0 0 0 0 0 0 0 0 0 0 0 0 0 0 0 2 0 0 0 0 1 0 0 0 0
0 0 0 0 0 0 0 0 0 0 0 0 0 0 0 0 0 0 0 0 0 0 0 0 0 0 0 0 0 0 0 0 0 0 0 0 0 0 0 0 0 0 0
0 0 0 0 0 0 0 0 0 0 0 0 0 0 0 0 0 0 0 0 0 0 0 0 0 0 0 0 0 0 0 0 0 0 0 0 0 0 0 0 0 0 1
CIN
-0 -0 -0 -0 -0 -0 -0 -0 -0 -0 -0 -0 -0 -0 -0 -0 -0 -0 -0 -0 -0 -0 -0 -0 -0 -0 -0 -0 -0 -0 -0 -0 -0 -0 -0 -0 -0 -0 -0 -0 -0 -0 -0
-0 -0 -0 -0 -0 -0 -0 -0 -0 -0 -0 -0 -0 -0 -0 -0 -0 -0 -0 -0 -0 -0 -0 -0 -0 -0 -0 -0 -0 -0 -0 -0 -0 -0 -0 -0 -0 -0 -0 -0 -0 -0 -0
-0 -0 -0 -0 -0 -0 -0 -0 -0 -0 -0 -0 -0 -0 -0 -0 -0 -0 -0 -0 -0 -0 -0 -0 -0 -0 -0 -0 -0 -0 -0 -0 -0 -0 -0 -0 -0 -0 -0 -0 -0 -0 -0
-0 -0 -0 -0 -0 -0 -0 -0 -0 -0 -0 -0 -0 -0 -0 -0 -0 -0 -0 -0 -0 -0 -0 -0 -0 -0 -0 -0 -0 -0 -0 -0 -0 -0 -0 -0 -0 -0 -0 -0 -0 -0 -0
-0 -0 -0 -0 -0 -0 -0 -0 -0 -0 -0 -0 -0 -0 -0 -0 -0 -0 -0 -0 -0 -0 -0 -0 -0 -0 -0 -0 -0 -0 -0 -0 -0 -0 -0 -0 -0 -0 -0 -0 -0 -0 -0
-0 -0 -0 -0 -0 -0 -0 -0 -0 -0 -0 -0 -0 -0 -0 -0 -0 -0 -0 -0 -0 -0 -0 -0 -0 -0 -0 -0 -0 -0 -0 -0 -0 -0 -0 -0 -0 -0 -0 -0 -0 -0 -0
-0 -0 -0 -0 -0 -0 -0 -0 -0 -0 -0 -0 -0 -0 -0 -0 -0 -0 -0 -0 -0 -0 -0 -0 -0 -0 -0 -0 -0 -0 -0 -0 -0 -0 -0 -0 -0 -0 -0 -0 -0 -0 -0
-0 -0 -0 -0 -0 -0 -0 -0 -0 -0 -0 -0 -0 -0 -0 -0 -0 -0 -0 -0 -0 -0 -0 -0 -0 -0 -0 -0 -0 -0 -0 -0 -0 -0 -0 -0 -0 -0 -0 -0 -0 -0 -0
-0 -0 -0 -0 -0 -0 -0 -0 -0 -0 -0 -0 -0 -0 -0 -0 -0 -0 -0 -0 -0 -0 -0 -0 -0 -0 -0 -0 -0 -0 -0 -0 -0 -0 -0 -0 -0 -0 -0 -0 -0 -0 -0
-0 -0 -0 -0 -0 -0 -0 -0 -0 -0 -0 -0 -0 -0 -0 -0 -0 -0 -0 -0 -0 -0 -0 -0 -0 -0 -0 -0 -0 -0 -0 -0 -0 -0 -0 -0 -0 -0 -0 -0 -0 -0 -0
-0 -0 -0 -0 -0 -0 -0 -0 -0 -0 -0 -0 -0 -0 -0 -0 -0 -0 -0 -0 -0 -0 -0 -0 -0 -0 -0 -0 -0 -0 -0 -0 -0 -0 -0 -0 -0 -0 -0 -0 -0 -0 -0
-0 -0 -0 -0 -0 -0 -0 -0 -0 -0 -0 -0 -0 -0 -0 -0 -0 -0 -0 -0 -0 -0 -0 -0 -0 -0 -0 -0 -0 -0 -0 -0 -0 -0 -0 -0 -0 -0 -0 -0 -0 -0 -0
-0 -0 -0 -0 -0 -0 -0 -0 -0 -0 -0 -0 -0 -0 -0 -0 -0 -0 -0 -0 -0 -0 -0 -0 -0 -0 -0 -0 -0 -0 -0 -0 -0 -0 -0 -0 -0 -0 -0 -0 -0 -0 -0
-0 -0 -0 -0 -0 -0 -0 -0 -0 -0 -0 -0 -0 -0 -0 -0 -0 -0 -0 -0 -0 -0 -0 -0 -0 -0 -0 -0 -0 -0 -0 -0 -0 -0 -0 -0 -0 -0 -0 -0 -0 -0 -0
-0 -0 -0 -0 -0 -0 -0 -0 -0 -0 -0 -0 -0 -0 -0 -0 -0 -0 -0 -0 -0 -0 -0 -0 -0 -0 -0 -0 -0 -0 -0 -0 -0 -0 -0 -0 -0 -0 -0 -0 -0 -0 -0
-0 -0 -0 -0 -0 -0 -0 -0 -0 -0 -0 -0 -0 -0 -0 -0 -0 -0 -0 -0 -0 -0 -0 -0 -0 -0 -0 -0 -0 -0 -0 -0 -0 -0 -0 -0 -0 -0 -0 -0 -0 -0 -0
-0 -0 -0 -0 -0 -0 -0 -0 -0 -0 -0 -0 -0 -0 -0 -0 -0 -0 -0 -0 -0 -0 -0 -0 -0 -0 -0 -0 -0 -0 -0 -0 -0 -0 -0 -0 -0 -0 -0 -0 -0 -0 -0
-0 -0 -0 -0 -0 -0 -0 -0 -0 -0 -0 -0 -0 -0 -0 -0 -0 -0 -0 -0 -0 -0 -0 -0 -0 -0 -0 -0 -0 -0 -0 -0 -0 -0 -0 -0 -0 -0 -0 -0 -0 -0 -0
-0 -0 -0 -0 -0 -0 -0 -0 -0 -0 -0 -0 -0 -0 -0 -0 -0 -0 -0 -0 -0 -0 -0 -0 -0 -0 -0 -0 -0 -0 -0 -0 -0 -0 -0 -0 -0 -0 -0 -0 -0 -0 -0
-0 -0 -0 -0 -0 -0 -0 -0 -0 -0 -0 -0 -0 -0 -0 -0 -0 -0 -0 -0 -0 -0 -0 -0 -0 -0 -0 -0 -0 -0 -0 -0 -0 -0 -0 -0 -0 -0 -0 -0 -0 -0 -0
-0 -0 -0 -0 -0 -0 -0 -0 -0 -0 -0 -0 -0 -0 -0 -0 -0 -0 -0 -0 -0 -0 -0 -0 -0 -0 -0 -0 -0 -0 -0 -0 -0 -0 -0 -0 -0 -0 -0 -0 -0 -0 -0
-0 -0 -0 -0 -0 -0 -0 -0 -0 -0 -0 -0 -0 -0 -0 -0 -0 -0 -0 -0 -0 -0 -0 -0 -0 -0 -0 -0 -0 -0 -0 -0 -0 -0 -0 -0 -0 -0 -0 -0 -0 -0 -1
-0 -0 -0 -0 -0 -0 -0 -0 -0 -0 -0 -0 -0 -0 -0 -0 -0 -0 -0 -0 -0 -0 -0 -0 -0 -0 -0 -0 -0 -0 -0 -0 -0 -0 -0 -0 -0 -0 -0 -0 -0 -0 -3
-0 -0 -0 -0 -0 -0 -0 -0 -0 -0 -0 -0 -0 -0 -0 -0 -0 -0 -0 -0 -0 -0 -0 -0 -0 -0 -0 -0 -0 -0 -0 -0 -0 -1 -2 -0 -0 -0 -0 -0 -0 -0 -0
-0 -0 -0 -0 -0 -0 -0 -0 -0 -0 -0 -0 -0 -0 -0 -0 -0 -0 -0 -0 -0 -0 -0 -0 -0 -0 -0 -0 -0 -0 -0 -0 -0 -0 -0 -0 -0 -0 -0 -0 -0 -0 -0
-0 -0 -0 -0 -0 -0 -0 -0 -0 -0 -0 -0 -0 -0 -0 -0 -0 -0 -0 -0 -0 -0 -0 -0 -0 -0 -0 -0 -0 -0 -0 -0 -0 -0 -0 -0 -0 -0 -0 -0 -0 -0 -0
Wind_Speed
7 7 7 7 7 6 6 4 3 1 1 1 1 1 0 2 1 2 3 4 4 5 5 4 4 4 4 4 5 3 4 3 5 2 3 3 4 5 4 4 4 6 5
5 7 8 7 7 7 6 5 5 3 2 1 1 2 2 2 1 1 2 3 4 4 4 4 4 4 3 5 5 5 3 2 5 2 1 3 3 4 4 4 4 6 5
9 8 9 8 7 7 7 7 6 5 3 3 1 1 1 1 1 1 1 1 3 3 3 4 3 3 3 3 3 4 4 2 2 6 2 2 1 2 1 4 4 6 5
6 6 8 8 8 8 6 6 6 5 4 3 2 3 3 3 3 3 2 1 1 2 2 2 3 3 2 4 3 3 2 1 3 3 3 2 1 1 4 2 2 4 5
6 7 9 9 6 6 7 6 6 5 4 4 4 3 3 2 1 1 2 2 1 1 1 1 2 2 2 2 2 3 3 2 2 2 2 2 2 3 2 4 4 4 4
5 4 4 6 5 5 6 6 6 6 6 5 5 5 5 4 3 3 3 3 2 2 3 2 2 2 2 1 1 1 1 1 2 1 1 1 1 0 2 1 2 2 3
5 4 5 5 6 7 7 6 7 7 6 6 6 6 7 6 6 5 4 4 3 3 5 3 3 2 2 2 1 2 2 2 1 2 1 1 1 1 2 2 2 1 2
2 4 6 6 7 7 8 7 7 7 7 7 7 6 7 5 5 6 4 4 4 4 4 6 5 5 5 4 3 2 3 3 3 3 3 2 2 2 2 2 2 2 2
4 6 6 7 8 8 9 9 8 8 7 8 7 7 7 7 6 7 6 5 5 5 6 6 6 6 5 5 4 3 4 4 3 4 4 3 2 2 2 2 2 3 2
5 3 4 5 6 7 7 7 7 9 8 7 7 7 8 8 7 6 7 8 7 6 6 7 6 6 6 6 5 4 3 4 4 4 5 4 3 4 3 3 3 3 3
1 0 2 4 5 5 5 7 7 7 7 7 7 7 7 8 7 8 8 8 6 7 7 7 6 6 6 5 5 6 6 6 6 5 6 6 4 3 3 3 3 3 4
4 2 3 4 6 6 6 6 6 6 7 6 6 8 7 7 7 8 9 7 9 7 8 8 8 7 7 7 7 7 7 7 7 6 6 7 4 6 5 4 5 4 4
4 3 5 6 6 7 7 7 6 6 6 5 6 7 8 7 9 10 10 9 10 10 8 8 9 9 9 8 8 8 8 7 7 6 6 6 6 5 4 4 4 4 3
4 3 5 6 6 6 6 6 6 4 5 4 5 7 7 8 9 9 8 9 10 11 10 11 11 11 10 10 9 8 8 7 7 7 7 7 7 7 6 5 6 5 4
5 5 5 5 6 6 7 6 6 6 5 5 5 6 6 6 7 7 8 9 9 11 11 10 10 10 9 9 10 9 9 8 8 7 7 7 8 13 11 5 5 5 4
4 5 5 6 6 6 6 6 6 6 5 6 6 6 6 6 6 7 7 7 9 9 8 10 11 10 9 17 19 13 9 8 8 8 6 6 10 11 17 18 17 11 6
4 5 5 5 5 5 5 6 7 6 6 6 6 6 6 6 7 6 6 7 8 7 8 10 8 11 11 19 21 21 8 9 9 8 7 5 6 10 8 15 19 17 20
3 5 4 6 5 5 6 6 6 6 6 6 6 6 6 7 7 7 7 6 5 7 7 9 9 10 10 19 20 21 11 8 8 9 8 7 7 8 8 6 7 7 7
3 3 3 3 5 5 6 6 6 6 6 6 6 6 6 7 7 7 7 6 6 6 6 7 8 9 12 17 18 16 9 8 10 9 9 8 7 13 19 10 9 8 9
2 3 5 4 5 6 5 6 6 6 7 7 7 6 6 6 7 7 7 5 4 7 5 7 7 12 10 14 17 16 8 9 7 5 7 16 11 18 21 12 7 9 10
3 3 3 4 5 6 5 6 6 7 7 7 7 7 6 7 7 7 4 6 6 6 6 7 7 7 8 9 17 17 8 8 6 7 8 5 15 21 22 21 10 11 9
4 5 5 6 6 6 5 7 7 8 7 8 8 8 7 6 6 7 7 6 6 6 7 6 7 5 6 13 14 18 20 15 8 8 6 6 18 19 19 16 17 17 16
4 3 4 7 7 6 4 7 7 7 8 8 9 8 8 8 6 6 8 6 5 5 7 5 6 8 4 5 15 17 19 19 10 7 11 17 17 17 14 18 18 17 6
4 3 5 7 8 6 4 7 8 8 8 9 10 9 7 11 7 5 5 5 7 7 7 7 7 7 5 5 4 6 8 17 13 13 11 12 14 14 11 11 10 5 5
4 4 6 6 8 8 11 7 8 7 8 8 9 10 7 8 9 8 7 7 8 9 9 9 7 7 7 8 11 10 7 7 11 7 2 2 3 5 5 5 5 4 6
5 6 6 6 9 8 11 9 8 7 7 9 8 8 8 8 6 7 10 13 17 20 21 23 17 9 18 18 15 17 19 19 16 4 4 5 7 8 7 7 7 6 9
Wind_Direction
215 178 184 174 152 165 162 161 166 191 73 71 127 66 218 303 89 70 76 53 37 41 46 42 36 33 46 25 12 343 9 337 347 19 5 18 50 59 53 44 51 46 34
202 183 192 182 180 181 181 176 191 175 172 164 202 170 182 242 150 86 55 57 50 33 57 47 41 40 44 30 22 18 342 352 360 64 49 1 337 14 54 43 50 42 30
209 194 195 191 186 193 191 193 192 191 185 193 140 133 49 24 56 326 318 351 58 46 52 50 53 43 47 41 23 14 30 353 328 31 110 42 282 321 308 66 53 35 35
213 186 178 183 200 208 197 197 189 191 200 187 191 202 208 210 223 197 213 196 126 69 62 62 56 54 48 41 6 25 4 33 16 341 15 24 98 167 326 350 20 14 27
191 184 188 198 193 192 199 198 194 204 197 196 203 207 227 238 233 193 204 229 243 209 168 107 79 63 55 41 37 24 21 17 54 23 339 11 31 54 121 278 325 358 351
111 156 210 183 191 194 194 198 204 218 207 205 215 215 222 224 211 222 226 238 240 244 242 196 165 169 169 176 200 184 117 96 104 106 28 80 125 96 64 327 304 270 307
136 153 150 169 187 198 204 209 211 228 219 214 221 222 227 223 223 224 219 217 226 226 233 218 213 215 216 224 220 229 218 196 170 178 187 192 205 172 163 164 251 287 303
197 205 205 207 213 213 213 215 219 233 222 217 226 225 227 219 223 225 224 237 230 232 221 220 214 216 213 212 207 208 213 200 199 206 214 213 213 188 185 185 150 318 296
228 234 235 227 228 227 224 214 218 229 224 220 219 224 222 220 225 230 224 226 230 233 227 219 221 222 223 222 217 221 227 213 217 226 224 221 229 212 197 190 168 166 287
225 257 280 272 261 249 248 237 225 228 227 221 218 222 218 219 224 224 230 225 231 227 228 222 222 225 224 221 215 231 247 232 241 227 223 223 220 214 202 198 197 189 192
189 26 360 333 325 306 268 250 234 234 238 225 225 224 226 223 224 228 234 232 233 228 231 227 227 231 234 232 230 235 237 230 235 237 225 234 225 223 215 206 205 208 186
129 69 2 353 4 351 344 280 259 244 244 243 238 236 236 229 232 237 235 226 230 222 223 219 221 223 221 217 220 230 227 225 237 239 237 237 223 223 223 213 218 214 209
92 32 18 12 2 358 357 352 335 284 274 256 245 251 244 234 234 235 234 225 230 232 225 217 222 225 219 215 217 219 226 226 227 228 233 237 230 241 237 235 238 238 237
91 33 13 2 356 357 1 357 344 335 308 285 265 262 255 247 248 250 243 232 224 229 224 222 225 221 218 219 218 217 225 227 230 226 225 227 224 225 222 226 227 235 234
53 15 359 349 345 345 340 344 345 348 347 347 326 293 282 270 261 255 249 245 235 237 235 229 224 221 214 222 216 212 218 221 228 225 229 228 230 236 233 216 221 220 229
4 349 343 344 341 333 330 340 350 348 347 339 324 314 313 312 299 285 271 255 247 241 233 231 230 227 231 235 225 213 212 218 223 235 232 232 248 250 248 246 233 210 211
333 326 328 323 318 328 337 342 329 325 332 322 316 320 319 315 309 302 298 282 264 253 239 243 230 233 233 236 230 226 205 209 215 209 216 229 235 246 234 253 253 254 258
336 325 320 325 334 338 337 321 323 323 322 317 315 314 315 305 302 302 291 284 266 255 248 245 237 236 244 241 233 227 218 213 209 204 203 214 239 235 241 236 243 244 247
302 288 306 296 310 311 311 321 325 322 321 316 308 301 302 298 295 293 289 282 272 266 249 239 242 229 249 244 235 229 214 207 216 204 196 200 231 258 256 241 238 244 246
257 291 311 317 329 325 332 329 317 320 308 301 297 295 296 291 293 282 288 278 263 276 277 270 239 241 247 243 234 229 220 223 222 205 212 230 236 252 253 247 226 244 249
303 312 319 302 299 316 329 323 317 309 298 296 291 291 288 288 276 288 269 285 294 286 277 275 272 252 241 251 249 244 226 218 200 214 232 224 250 255 252 247 225 232 245
335 339 336 324 317 324 333 312 307 293 300 300 299 296 290 289 288 284 289 283 279 284 289 288 289 261 252 254 251 245 236 214 216 221 222 228 245 252 250 248 249 255 257
329 330 328 311 303 299 296 308 292 301 302 307 308 304 299 295 278 279 287 294 278 265 281 271 276 281 258 248 255 246 244 235 211 216 234 238 241 246 251 249 251 253 253
328 312 312 307 305 303 270 239 283 302 313 304 298 295 289 298 292 274 259 259 277 278 267 268 266 266 266 255 240 242 246 248 237 247 235 230 234 235 232 243 249 246 247
306 312 312 304 303 312 318 314 295 294 289 287 293 293 288 282 289 280 273 272 260 249 262 254 244 254 264 254 237 228 220 223 227 215 172 185 223 225 233 230 225 224 241
309 320 315 314 310 307 300 302 283 279 279 299 301 296 297 293 283 286 294 281 275 274 266 262 252 253 246 256 251 245 241 237 229 215 189 225 225 228 231 227 232 223 238